FW4356 Weather Reports


time (UTC)temp
C
wind
direction
speed
KPH
gust
KPH
rain 1hr
cm
rain 24hr
cm
rain mn
cm
humidity
%
barometer
mb
20260507061018 7 267 0.0 3.2 0.00 0.89 0.00 98 1006.4
20260507060517 7 267 0.0 3.2 0.00 0.89 0.00 98 1006.3
20260507060021 7 267 1.6 3.2 0.00 0.89 0.00 98 1006.5
20260507055517 7 196 0.0 3.2 0.00 0.89 0.00 99 1006.6
20260507055016 7 196 0.0 1.6 0.00 0.89 0.00 99 1006.3
20260507054516 7 196 0.0 1.6 0.00 0.89 0.00 99 1006.4
20260507054016 7 196 0.0 3.2 0.00 0.89 0.00 99 1006.6
20260507053516 7 196 0.0 3.2 0.00 0.89 0.00 99 1006.7
20260507053016 7 195 1.6 4.8 0.00 0.89 0.00 99 1006.7
20260507052515 7 195 0.0 3.2 0.00 0.89 0.00 98 1006.7
20260507052015 7 195 0.0 3.2 0.00 0.89 0.00 98 1006.7
20260507051515 7 195 1.6 3.2 0.00 0.89 0.00 98 1006.7
20260507051013 7 193 0.0 3.2 0.00 0.89 0.00 99 1006.5
20260507050513 7 196 0.0 4.8 0.00 0.89 0.00 99 1006.4
20260507050012 7 182 1.6 6.4 0.00 0.89 0.00 98 1006.5
20260507045512 7 276 0.0 6.4 0.00 0.89 0.00 98 1006.3
20260507045014 8 267 1.6 3.2 0.00 0.89 0.00 99 1006.3
20260507044511 8 267 0.0 3.2 0.00 0.89 0.00 99 1006.2
20260507044011 8 267 0.0 3.2 0.00 0.89 0.00 99 1006.3
20260507043510 8 267 0.0 3.2 0.00 0.89 0.00 99 1006.4
20260507043011 8 267 0.0 3.2 0.00 0.89 0.00 99 1006.5
20260507042511 8 267 0.0 3.2 0.00 0.89 0.00 99 1006.4
20260507042012 8 267 0.0 4.8 0.00 0.89 0.00 98 1006.3
20260507041509 8 267 0.0 4.8 0.00 0.89 0.00 98 1006.4
20260507041009 8 267 0.0 3.2 0.00 0.89 0.00 98 1006.8
20260507040508 8 267 0.0 3.2 0.00 0.89 0.00 98 1006.7
20260507040007 8 279 0.0 3.2 0.00 0.89 0.00 98 1006.5
20260507035506 8 279 0.0 3.2 0.00 0.89 0.89 98 1006.4
20260507035005 8 279 0.0 3.2 0.00 0.89 0.89 98 1006.4
20260507034505 8 279 0.0 3.2 0.00 0.89 0.89 98 1006.3
20260507034004 8 279 0.0 4.8 0.03 0.89 0.89 98 1006.3
20260507033504 8 278 0.0 4.8 0.05 0.89 0.89 98 1006.3
20260507033003 8 278 0.0 3.2 0.08 0.89 0.89 98 1006.3
20260507032503 8 278 0.0 3.2 0.08 0.89 0.89 98 1006.2
20260507032002 9 278 0.0 3.2 0.10 0.89 0.89 98 1006.2
20260507031501 9 278 0.0 3.2 0.10 0.89 0.89 98 1006.1
20260507031100 9 278 0.0 3.2 0.10 0.89 0.89 98 1006.1
20260507030558 9 278 0.0 4.8 0.10 0.89 0.89 97 1006.0
20260507030104 9 278 0.0 4.8 0.10 0.89 0.89 97 1006.1
20260507025556 10 279 0.0 3.2 0.13 0.89 0.89 97 1006.1
20260507025056 10 279 0.0 3.2 0.13 0.89 0.89 97 1006.1
20260507024555 10 279 0.0 3.2 0.13 0.89 0.89 97 1006.2
20260507024053 10 279 0.0 6.4 0.10 0.86 0.86 97 1006.3
20260507023554 10 279 0.0 8.0 0.08 0.84 0.84 96 1006.4
20260507023051 11 318 1.6 8.0 0.05 0.81 0.81 97 1006.3
20260507022550 11 151 1.6 11.3 0.05 0.81 0.81 98 1006.2
20260507022050 11 313 0.0 11.3 0.05 0.79 0.79 98 1006.0
20260507021548 11 271 0.0 6.4 0.05 0.79 0.79 98 1005.7
20260507021047 11 125 0.0 4.8 0.08 0.79 0.79 98 1005.5
20260507020546 11 191 0.0 4.8 0.23 0.79 0.79 98 1005.6
20260507020056 11 170 1.6 4.8 0.30 0.79 0.79 98 1005.8
20260507015544 12 272 0.0 3.2 0.30 0.76 0.76 98 1005.6
20260507015043 12 145 0.0 4.8 0.36 0.76 0.76 99 1005.5
20260507014549 12 146 0.0 4.8 0.36 0.76 0.76 98 1005.2
20260507014042 12 336 0.0 3.2 0.36 0.76 0.76 98 1005.4
20260507013542 12 336 0.0 3.2 0.36 0.76 0.76 98 1005.4
20260507013041 12 336 0.0 3.2 0.36 0.76 0.76 98 1005.4
20260507012542 13 336 0.0 3.2 0.36 0.76 0.76 98 1005.2
20260507012040 13 79 0.0 4.8 0.33 0.71 0.71 99 1005.2
20260507011548 13 99 0.0 4.8 0.33 0.71 0.71 99 1005.1
20260507011039 13 28 0.0 4.8 0.30 0.71 0.71 100 1005.1
20260507010539 13 23 1.6 6.4 0.13 0.53 0.53 100 1005.0
20260507010038 13 83 1.6 6.4 0.08 0.48 0.48 99 1004.6
20260507005539 13 290 0.0 4.8 0.05 0.53 0.46 99 1004.7
20260507005041 13 274 0.0 6.4 0.00 0.48 0.41 99 1004.6
20260507004537 13 134 0.0 11.3 0.00 0.48 0.41 99 1004.5
20260507004038 13 114 1.6 11.3 0.00 0.48 0.41 99 1004.3
20260507003542 13 110 0.0 9.7 0.00 0.48 0.41 99 1004.4
20260507003037 13 115 3.2 9.7 0.00 0.48 0.41 99 1004.2
20260507002537 13 48 1.6 8.0 0.00 0.48 0.41 99 1004.2
20260507002037 13 337 1.6 6.4 0.00 0.48 0.41 99 1004.0
20260507001548 13 312 1.6 6.4 0.00 0.48 0.41 99 1004.2
20260507001036 13 332 0.0 6.4 0.00 0.48 0.41 99 1004.1
20260507000537 13 326 0.0 11.3 0.00 0.48 0.41 99 1004.1
20260507000039 13 350 3.2 11.3 0.00 0.48 0.41 99 1004.1
20260506235536 13 233 0.0 11.3 0.00 0.48 0.41 99 1004.2
20260506235036 13 268 1.6 9.7 0.00 0.48 0.41 99 1004.0
20260506234543 13 349 0.0 9.7 0.00 0.48 0.41 99 1004.0
20260506234035 13 33 1.6 11.3 0.00 0.48 0.41 99 1004.0
20260506233535 13 330 3.2 11.3 0.00 0.48 0.41 99 1003.9
20260506233034 13 269 1.6 11.3 0.00 0.48 0.41 99 1003.8
20260506232533 13 182 0.0 8.0 0.00 0.48 0.41 99 1003.7
20260506232034 13 356 1.6 8.0 0.00 0.48 0.41 99 1003.7
20260506231536 13 209 0.0 12.9 0.00 0.48 0.41 99 1003.8
20260506231033 13 231 1.6 12.9 0.00 0.48 0.41 98 1004.0
20260506230532 13 146 1.6 12.9 0.00 0.48 0.41 98 1004.0
20260506230031 13 83 1.6 9.7 0.00 0.48 0.41 99 1004.1
20260506225531 13 154 1.6 6.4 0.00 0.48 0.41 99 1004.0
20260506225031 13 156 0.0 6.4 0.00 0.48 0.41 98 1004.0
20260506224532 13 264 1.6 8.0 0.00 0.48 0.41 98 1003.9
20260506224030 13 164 0.0 14.5 0.00 0.48 0.41 98 1004.1
20260506223530 13 317 3.2 14.5 0.00 0.48 0.41 98 1004.1
20260506223031 13 166 1.6 6.4 0.00 0.48 0.41 98 1004.1
20260506222530 13 28 1.6 8.0 0.00 0.48 0.41 98 1004.2
20260506222032 13 307 3.2 11.3 0.00 0.48 0.41 98 1004.1
20260506221530 13 229 4.8 12.9 0.00 0.48 0.41 97 1004.2
20260506221029 13 314 1.6 12.9 0.00 0.48 0.41 97 1004.2
20260506220529 13 340 4.8 9.7 0.00 0.48 0.41 97 1004.2
20260506220129 13 39 1.6 19.3 0.00 0.48 0.41 97 1004.2
20260506215528 14 353 3.2 19.3 0.00 0.48 0.41 97 1004.1
20260506215028 14 129 3.2 11.3 0.00 0.48 0.41 97 1004.1
20260506214528 14 239 0.0 14.5 0.00 0.48 0.41 96 1004.2
20260506214028 14 23 3.2 14.5 0.00 0.48 0.41 97 1004.2
20260506213530 14 134 3.2 12.9 0.00 0.48 0.41 96 1004.0
20260506213027 14 237 3.2 14.5 0.00 0.48 0.41 97 1004.1
20260506212532 14 154 3.2 14.5 0.00 0.48 0.41 97 1004.1
20260506212028 14 119 3.2 12.9 0.00 0.48 0.41 97 1004.0
20260506211526 14 314 0.0 12.9 0.03 0.48 0.41 97 1004.0
20260506211026 14 328 4.8 14.5 0.03 0.48 0.41 97 1004.1
20260506210529 14 232 4.8 14.5 0.03 0.48 0.41 97 1004.3
20260506210026 14 299 4.8 16.1 0.03 0.48 0.41 97 1004.2
20260506205525 14 50 1.6 16.1 0.05 0.48 0.41 97 1004.1
20260506205028 14 110 1.6 14.5 0.05 0.48 0.41 97 1004.2
20260506204525 14 277 3.2 8.0 0.05 0.48 0.41 97 1004.3
20260506204027 14 189 1.6 16.1 0.08 0.48 0.41 97 1004.3
20260506203524 15 214 6.4 16.1 0.08 0.48 0.41 97 1004.4
20260506203032 15 216 6.4 14.5 0.10 0.48 0.41 97 1004.4
20260506202527 15 239 3.2 12.9 0.15 0.48 0.41 97 1004.4
20260506202024 15 23 3.2 12.9 0.18 0.48 0.41 98 1004.5
20260506201523 15 185 4.8 17.7 0.18 0.46 0.38 98 1004.4
20260506201022 15 61 3.2 17.7 0.18 0.46 0.38 97 1004.4
20260506200522 15 143 4.8 17.7 0.18 0.46 0.38 98 1004.5
20260506200025 15 345 3.2 12.9 0.20 0.46 0.38 97 1004.6
20260506195520 15 14 1.6 12.9 0.18 0.43 0.36 97 1004.8
20260506195021 15 278 3.2 17.7 0.18 0.43 0.36 97 1004.7
20260506194520 15 187 4.8 19.3 0.18 0.43 0.36 97 1004.7
20260506194020 15 272 4.8 19.3 0.15 0.41 0.33 97 1004.7
20260506193520 15 161 3.2 16.1 0.13 0.38 0.30 96 1004.9
20260506193019 15 174 3.2 9.7 0.13 0.38 0.30 96 1004.9
20260506192519 15 73 3.2 8.0 0.08 0.33 0.25 96 1004.9
20260506192019 15 139 3.2 12.9 0.08 0.30 0.23 96 1004.9
20260506191519 15 306 1.6 12.9 0.05 0.28 0.20 95 1005.0
20260506191019 15 162 3.2 12.9 0.08 0.28 0.20 95 1005.0
20260506190518 15 145 1.6 19.3 0.08 0.28 0.20 95 1005.0
20260506190027 15 124 3.2 19.3 0.05 0.25 0.18 97 1004.8
20260506185518 15 144 0.0 6.4 0.08 0.25 0.18 97 1004.7
20260506185017 15 139 3.2 8.0 0.08 0.25 0.18 96 1004.7
20260506184516 15 272 1.6 9.7 0.08 0.25 0.18 95 1004.7
20260506184016 15 110 3.2 9.7 0.10 0.25 0.18 95 1004.8
20260506183515 15 79 4.8 9.7 0.10 0.25 0.18 95 1005.1
20260506183014 15 74 1.6 6.4 0.13 0.25 0.18 95 1005.5
20260506182513 15 349 1.6 8.0 0.13 0.23 0.15 96 1005.7
20260506182019 15 204 3.2 8.0 0.13 0.23 0.15 95 1005.7
20260506181512 15 318 3.2 6.4 0.15 0.23 0.15 95 1005.9
20260506181012 15 16 1.6 11.3 0.13 0.20 0.13 96 1006.1
20260506180511 15 267 3.2 11.3 0.13 0.20 0.13 95 1006.1
20260506180011 15 247 1.6 9.7 0.13 0.20 0.13 96 1005.9
20260506175510 15 13 1.6 8.0 0.10 0.18 0.10 95 1006.0
20260506175009 15 297 1.6 6.4 0.10 0.18 0.10 95 1006.1
20260506174514 15 82 0.0 6.4 0.10 0.18 0.10 94 1006.3
20260506174010 15 245 3.2 6.4 0.08 0.15 0.08 93 1006.3
20260506173509 15 357 0.0 6.4 0.05 0.13 0.05 94 1006.3
20260506173009 15 269 0.0 6.4 0.05 0.13 0.05 92 1006.3
20260506172507 16 224 0.0 6.4 0.03 0.10 0.03 91 1006.4
20260506172007 16 276 0.0 6.4 0.03 0.10 0.03 90 1006.5
20260506171514 16 316 1.6 11.3 0.00 0.08 0.00 88 1006.3
20260506171007 16 214 1.6 11.3 0.00 0.08 0.00 88 1006.2
20260506170508 16 63 1.6 12.9 0.00 0.08 0.00 87 1006.2
20260506170007 17 53 1.6 12.9 0.00 0.08 0.00 86 1006.4
20260506165510 17 278 3.2 12.9 0.00 0.08 0.00 83 1006.3
20260506165006 17 302 3.2 12.9 0.00 0.08 0.00 83 1006.4
20260506164505 17 139 3.2 11.3 0.00 0.08 0.00 81 1006.2
20260506164007 17 176 4.8 17.7 0.00 0.08 0.00 81 1006.3
20260506163505 17 162 1.6 17.7 0.00 0.08 0.00 80 1006.2
20260506163005 17 91 3.2 14.5 0.00 0.08 0.00 80 1006.2
20260506162505 17 18 3.2 14.5 0.00 0.08 0.00 80 1006.3
20260506162007 17 165 3.2 14.5 0.00 0.08 0.00 79 1006.4
20260506161505 17 80 3.2 12.9 0.00 0.08 0.00 79 1006.6
20260506161004 17 83 1.6 8.0 0.00 0.08 0.00 80 1006.7
20260506160506 17 295 1.6 12.9 0.00 0.08 0.00 79 1006.7
20260506160003 17 41 3.2 12.9 0.00 0.08 0.00 79 1006.8
20260506155502 17 106 1.6 9.7 0.00 0.08 0.00 80 1006.8
20260506155002 17 142 3.2 12.9 0.00 0.08 0.00 80 1006.9
20260506154503 17 12 1.6 12.9 0.00 0.08 0.00 79 1006.8
20260506154002 17 347 1.6 12.9 0.00 0.08 0.00 80 1007.1
20260506153501 17 44 3.2 9.7 0.00 0.08 0.00 80 1007.1
20260506153001 17 320 3.2 9.7 0.00 0.08 0.00 79 1007.2
20260506152502 17 23 1.6 11.3 0.00 0.08 0.00 79 1007.2
20260506152004 17 147 1.6 9.7 0.00 0.08 0.00 80 1007.2
20260506151601 17 126 1.6 9.7 0.00 0.08 0.00 79 1007.3
20260506151101 17 276 1.6 12.9 0.00 0.08 0.00 79 1007.5
20260506150559 17 64 3.2 12.9 0.00 0.08 0.00 78 1007.5
20260506150059 18 133 3.2 12.9 0.00 0.08 0.00 79 1007.3
20260506145600 18 120 3.2 9.7 0.00 0.08 0.00 78 1007.4
20260506145058 18 122 1.6 11.3 0.00 0.08 0.00 77 1007.3
20260506144558 18 118 3.2 9.7 0.00 0.08 0.00 79 1007.0
20260506144058 18 295 1.6 14.5 0.00 0.08 0.00 78 1007.1
20260506143558 18 109 1.6 14.5 0.00 0.08 0.00 77 1007.9
20260506143058 18 82 1.6 14.5 0.00 0.08 0.00 77 1007.4
20260506142558 18 210 3.2 17.7 0.00 0.08 0.00 77 1007.2
20260506142057 18 251 3.2 17.7 0.00 0.08 0.00 79 1007.2
20260506141555 18 28 4.8 12.9 0.00 0.08 0.00 81 1007.0
20260506141054 17 16 3.2 12.9 0.00 0.08 0.00 80 1006.9
20260506140556 17 209 3.2 16.1 0.00 0.08 0.00 81 1007.1
20260506140053 17 1 6.4 16.1 0.00 0.08 0.00 80 1007.1
20260506135551 17 356 3.2 14.5 0.00 0.08 0.00 81 1007.1
20260506135051 17 140 1.6 6.4 0.00 0.08 0.00 82 1006.9
20260506134550 17 120 1.6 9.7 0.00 0.08 0.00 84 1006.9
20260506134048 17 152 1.6 14.5 0.00 0.08 0.00 84 1006.9
20260506133547 16 307 3.2 14.5 0.00 0.08 0.00 84 1007.0
20260506133049 16 41 3.2 9.7 0.00 0.08 0.00 85 1007.1
20260506132550 16 293 3.2 8.0 0.00 0.08 0.00 86 1007.1
20260506132044 16 208 3.2 8.0 0.00 0.08 0.00 86 1007.3
20260506131545 16 23 0.0 6.4 0.00 0.08 0.00 87 1007.3
20260506131044 16 246 1.6 6.4 0.00 0.08 0.00 86 1007.4
20260506130543 16 356 1.6 9.7 0.00 0.08 0.00 87 1007.4
20260506130043 15 270 3.2 16.1 0.00 0.08 0.00 87 1007.5
20260506125541 15 242 6.4 16.1 0.00 0.08 0.00 87 1007.7
20260506125041 15 128 1.6 20.9 0.00 0.08 0.00 87 1007.5
20260506124544 15 328 6.4 20.9 0.00 0.08 0.00 86 1007.6
20260506124040 15 274 1.6 17.7 0.00 0.08 0.00 87 1007.6
20260506123540 15 234 1.6 17.7 0.00 0.08 0.00 88 1007.7
20260506123039 15 205 4.8 12.9 0.00 0.08 0.00 86 1007.6
20260506122538 15 213 3.2 11.3 0.00 0.08 0.00 87 1007.5
20260506122036 15 134 1.6 11.3 0.00 0.08 0.00 88 1007.4
20260506121543 15 225 3.2 12.9 0.00 0.08 0.00 88 1007.3
20260506121035 15 9 3.2 12.9 0.00 0.08 0.00 88 1007.4
20260506120534 15 37 3.2 12.9 0.00 0.08 0.00 88 1007.5
20260506120037 15 303 3.2 14.5 0.00 0.08 0.00 87 1007.5
20260506115533 15 233 1.6 14.5 0.00 0.08 0.00 87 1007.5
20260506115033 15 219 3.2 8.0 0.00 0.08 0.00 87 1007.7
20260506114533 15 293 3.2 16.1 0.00 0.08 0.00 87 1007.7
20260506114032 15 316 3.2 16.1 0.00 0.08 0.00 89 1007.8
20260506113534 14 330 1.6 14.5 0.00 0.08 0.00 89 1007.6
20260506113032 14 139 3.2 14.5 0.00 0.08 0.00 89 1007.6
20260506112533 14 333 3.2 11.3 0.00 0.08 0.00 88 1007.8
20260506112033 14 6 1.6 6.4 0.00 0.08 0.00 89 1007.8
20260506111534 14 23 1.6 12.9 0.00 0.08 0.00 88 1007.7
20260506111031 14 214 4.8 12.9 0.00 0.08 0.00 88 1007.8
20260506110531 14 277 0.0 6.4 0.00 0.08 0.00 89 1007.9
20260506110031 13 50 3.2 11.3 0.00 0.08 0.00 89 1007.7
20260506105530 13 335 0.0 11.3 0.00 0.08 0.00 90 1007.8
20260506105030 13 320 1.6 12.9 0.00 0.08 0.00 90 1007.9
20260506104529 13 243 3.2 12.9 0.00 0.08 0.00 90 1007.8
20260506104029 13 297 1.6 8.0 0.00 0.08 0.00 90 1007.8
20260506103529 13 285 0.0 6.4 0.00 0.08 0.00 91 1007.7
20260506103029 13 285 3.2 6.4 0.00 0.08 0.00 90 1007.6
20260506102530 13 322 0.0 6.4 0.00 0.08 0.00 91 1007.7
20260506102028 13 295 1.6 6.4 0.00 0.08 0.00 91 1007.7
20260506101528 12 230 1.6 6.4 0.00 0.08 0.00 91 1007.7
20260506101028 13 199 0.0 4.8 0.00 0.08 0.00 90 1007.7
20260506100527 13 331 0.0 8.0 0.00 0.08 0.00 90 1007.6
20260506100031 13 232 1.6 12.9 0.00 0.08 0.00 90 1007.7
20260506095527 12 259 3.2 12.9 0.00 0.08 0.00 90 1007.7
20260506095027 12 305 1.6 6.4 0.00 0.08 0.00 90 1007.7
20260506094526 12 353 1.6 6.4 0.00 0.08 0.00 90 1007.6
20260506094026 12 222 1.6 6.4 0.00 0.08 0.00 90 1007.5
20260506093526 12 306 0.0 4.8 0.00 0.08 0.00 90 1007.7
20260506093026 12 331 1.6 6.4 0.00 0.08 0.00 90 1007.7
20260506092527 12 294 1.6 9.7 0.00 0.08 0.00 89 1007.7
20260506092025 12 342 0.0 9.7 0.00 0.08 0.00 90 1007.5
20260506091524 12 331 1.6 12.9 0.00 0.08 0.00 90 1007.6
20260506091025 12 352 1.6 12.9 0.00 0.08 0.00 90 1007.6
20260506090523 12 42 1.6 6.4 0.00 0.08 0.00 90 1007.6
20260506090024 12 246 1.6 8.0 0.00 0.08 0.00 90 1007.7
20260506085522 12 294 0.0 8.0 0.00 0.08 0.00 89 1007.8
20260506085022 12 203 1.6 6.4 0.00 0.08 0.00 89 1007.8
20260506084533 12 175 1.6 6.4 0.00 0.08 0.00 89 1007.7
20260506084022 12 333 1.6 4.8 0.00 0.08 0.00 89 1007.8
20260506083523 12 333 1.6 4.8 0.00 0.08 0.00 89 1007.8
20260506083024 13 314 0.0 4.8 0.00 0.08 0.00 88 1007.9
20260506082523 13 330 0.0 4.8 0.00 0.08 0.00 88 1007.8
20260506082019 13 270 0.0 4.8 0.00 0.08 0.00 88 1007.8
20260506081519 13 317 1.6 6.4 0.00 0.08 0.00 87 1007.7
20260506081018 13 321 3.2 6.4 0.00 0.08 0.00 87 1007.8
20260506080517 13 268 1.6 6.4 0.00 0.08 0.00 87 1007.8
20260506073516 13 66 1.6 4.8 0.00 0.08 0.00 85 1007.9
20260506073013 13 272 0.0 6.4 0.00 0.08 0.00 85 1008.0
20260506072513 14 272 1.6 8.0 0.00 0.08 0.00 85 1008.0
20260506072011 14 282 0.0 8.0 0.00 0.08 0.00 85 1007.9
20260506071512 14 322 0.0 4.8 0.00 0.08 0.00 84 1007.9
20260506071011 14 322 0.0 6.4 0.00 0.08 0.00 84 1007.9
20260506070510 14 322 1.6 6.4 0.00 0.08 0.00 83 1007.8
20260506062513 15 253 3.2 11.3 0.00 0.08 0.00 82 1007.6
20260506062008 15 299 3.2 12.9 0.00 0.08 0.00 82 1007.6
20260506061509 15 254 0.0 12.9 0.00 0.08 0.00 82 1007.6